User: anonymous   Login
Location: Theydon Bois
(51.6750°N, 0.1050°E)
Time: 00:10:32
(UTC+01:00)
Language:

Cosmos 2366 rocket - Orbit

View from above orbital plane
View from above orbital plane
View from above satellite
View from above satellite

Ground track
Ground track

The orbit data is extracted from the following two-line orbital elements,

1 25893U 99045B   17294.56266329 +.00000118 +00000-0 +10444-3 0  9992
2 25893 082.9231 290.4210 0030118 100.3033 017.9201 13.76508414912051
Epoch (UTC): 21 October 2017 13:30:14
Eccentricity: 0.0030118
inclination: 82.9231°
perigee height: 954 km
apogee height: 998 km
right ascension of ascending node: 290.4210°
argument of perigee: 100.3033°
revolutions per day: 13.76508414
mean anomaly at epoch: 17.9201°
orbit number at epoch: 91205

The dashed part of the orbit path shows where the satellite is in the earth's shadow,  

DLR